Regional Weather Roundup
Issued by NWS San Angelo, TX

Home | Current Version | Previous Version | Text Only | Print | Product List | Glossary On
Versions: 1 2 3 4 5 6 7 8 9 10 11 12 13 14 15 16 17 18 19 20 21 22 23 24 25 26 27 28 29 30 31 32 33 34 35 36 37 38 39 40 41 42 43 44 45 46 47 48 49 50
000
ASUS44 KSJT 301958
RWRSJT
WEST CENTRAL TEXAS REGIONAL WEATHER ROUNDUP
NATIONAL WEATHER SERVICE SAN ANGELO TX
300 PM CDT THU MAR 30 2017

NOTE: "FAIR" INDICATES FEW OR NO CLOUDS BELOW 12,000 FEET WITH NO
SIGNIFICANT WEATHER AND/OR OBSTRUCTIONS TO VISIBILITY.

TXZ049-054-064>066-071>073-076>078-098-099-113-114-127-128-139-140-
154-155-168>170-302100
...LOCATIONS ACROSS WEST CENTRAL TEXAS...

CITY           SKY/WX    TMP DP  RH WIND       PRES   REMARKS
SAN ANGELO     SUNNY     80  36  20 SW18G25   29.82F
ABILENE        SUNNY     76  43  30 W14G26    29.79F
DYESS AFB      NOT AVBL
JUNCTION       SUNNY     78  38  23 W13G21    29.85F
SWEETWATER     NOT AVBL
BROWNWOOD      NOT AVBL
COLEMAN        NOT AVBL
SONORA         NOT AVBL
OZONA          NOT AVBL
BRADY          NOT AVBL
$$

TEXAS PANHANDLE/OKLAHOMA PANHANDLE

CITY           SKY/WX    TMP DP  RH WIND       PRES   REMARKS
AMARILLO       SUNNY     68  35  29 S7        29.79F
BORGER         SUNNY     67  38  34 SW6       29.78F
CANADIAN       NOT AVBL
DALHART        CLOUDY    68  37  32 SW9       29.80F
DUMAS          NOT AVBL
GUYMON         NOT AVBL
HEREFORD       NOT AVBL
PAMPA          NOT AVBL
PERRYTON       NOT AVBL
$$

SOUTHERN PANHANDLE/SOUTH PLAINS/ROLLING PLAINS

CITY           SKY/WX    TMP DP  RH WIND       PRES   REMARKS
LUBBOCK        PTSUNNY   75  35  23 W17       29.78F
SNYDER         NOT AVBL
CHILDRESS      SUNNY     70  45  40 NW3       29.77F
SEMINOLE       NOT AVBL
$$

PERMIAN BASIN

CITY           SKY/WX    TMP DP  RH WIND       PRES   REMARKS
MIDLAND        SUNNY     79  31  17 W21G26    29.82F
ODESSA           N/A     80  28  15 W18G24    29.82F
WINK           SUNNY     83  22  10 SW20G26   29.80F
$$

FAR WEST/SOUTHWEST MOUNTAINS/TRANS PECOS

CITY           SKY/WX    TMP DP  RH WIND       PRES   REMARKS
ALPINE         NOT AVBL
DRYDEN         NOT AVBL
EL PASO        MOSUNNY   77  17  10 W17G28    29.90F
FORT STOCKTON  SUNNY     82  22  11 W10G23    29.85F
GUADALUPE PASS NOT AVBL
MARFA          NOT AVBL
PECOS          NOT AVBL
$$

DALLAS/FORT WORTH METROPLEX

CITY           SKY/WX    TMP DP  RH WIND       PRES   REMARKS
DFW AIRPORT    MOSUNNY   75  44  33 MISG      29.75F
FTW MEACHAM    SUNNY     75  45  34 NW13G23   29.76F
DAL-EXECUTIVE  SUNNY     73  46  38 NW13      29.76F
GRAND PRAIRIE  SUNNY     73  41  31 W8        29.79F
ADDISON        SUNNY     72  45  37 W15G25    29.78F
MESQUITE       CLEAR     70  41  35 W15G24    29.78F
LANCASTER      NOT AVBL
$$

NORTH CENTRAL TEXAS

CITY           SKY/WX    TMP DP  RH WIND       PRES   REMARKS
SHRMAN/DENISON NOT AVBL
GAINESVILLE    NOT AVBL
BRIDGEPORT     NOT AVBL
DENTON         SUNNY     72  47  40 W15G25    29.75F
WAXAHACHIE     NOT AVBL
GRANBURY       NOT AVBL
$$

WESTERN NORTH TEXAS

CITY           SKY/WX    TMP DP  RH WIND       PRES   REMARKS
WICHITA FALLS  MOSUNNY   69  45  41 W12       29.76F
VERNON         NOT AVBL
BRECKENRIDGE   NOT AVBL
COMANCHE       NOT AVBL
$$

CENTRAL AND SOUTH CENTRAL TEXAS

CITY           SKY/WX    TMP DP  RH WIND       PRES   REMARKS
AUSTIN/BERGSTM SUNNY     78  41  26 W6        29.85F
WACO           SUNNY     75  47  36 W9        29.81F
HILLSBORO      NOT AVBL
TEMPLE         SUNNY     76  47  35 SW8       29.83F
KILLEEN-GRAY   NOT AVBL
FORT HOOD      NOT AVBL
GEORGETOWN     SUNNY     77  41  27 W6        29.83F
LAGO VISTA     NOT AVBL
SAN MARCOS     SUNNY     79  45  29 NE5       29.87F
NEW BRAUNFELS  SUNNY     79  42  26 MISG      29.85F
RANDOLPH AFB   NOT AVBL
SAN ANTONIO    SUNNY     77  42  28 VRB7      29.87F
STINSON        SUNNY     78  44  29 W5        29.85F
PLEASANTON     NOT AVBL
LA GRANGE      NOT AVBL
GIDDINGS       NOT AVBL
$$

EAST TEXAS

CITY           SKY/WX    TMP DP  RH WIND       PRES   REMARKS
PARIS          NOT AVBL
CLARKSVILLE    NOT AVBL
TYLER          SUNNY     71  44  37 NW13G21   29.78F
LONGVIEW       SUNNY     71  46  40 W14       29.76F
PALESTINE      NOT AVBL
NACOGDOCHES    NOT AVBL
$$

TEXAS HILL COUNTRY AND EDWARDS PLATEAU

CITY           SKY/WX    TMP DP  RH WIND       PRES   REMARKS
LLANO          NOT AVBL
HORSESHOE BAY  NOT AVBL
KERRVILLE      NOT AVBL
FREDERICKSBRG  NOT AVBL
ROCKSPRINGS    NOT AVBL
HONDO          SUNNY     79  47  32 SW12      29.88F
UVALDE         NOT AVBL
DEL RIO        SUNNY     78  39  24 VRB3      29.86F
$$

SOUTHEAST TEXAS

CITY           SKY/WX    TMP DP  RH WIND       PRES   REMARKS
COLLEGE STN    SUNNY     73  47  39 W13       29.84F
CALDWELL       NOT AVBL
CROCKETT       NOT AVBL
BRENHAM        NOT AVBL
HUNTSVILLE     SUNNY     74  44  34 W9        29.83F
CONROE         SUNNY     73  46  38 VRB7G16   29.84F
HOUSTON BUSH   MOSUNNY   74  48  39 N12       29.84F
HOUSTON HOBBY  SUNNY     74  44  34 NW14      29.84F
PERLAND        SUNNY     75  44  33 W8        29.85F
WHARTON        NOT AVBL
$$

THE UPPER TEXAS COAST

CITY           SKY/WX    TMP DP  RH WIND       PRES   REMARKS
ORANGE         NOT AVBL
PORT ARTHUR    SUNNY     76  50  40 W13       29.81F
GALVESTON      SUNNY     72  51  47 NE9       29.86F
ANGLETON       SUNNY     75  51  43 NW9       29.86S
BAY CITY       NOT AVBL
$$

TEXAS COASTAL BEND, RIO GRANDE PLAINS DEEP SOUTH TEXAS

CITY           SKY/WX    TMP DP  RH WIND       PRES   REMARKS
VICTORIA       SUNNY     78  48  34 NW10      29.87F
BEEVILLE       NOT AVBL
ROCKPORT       SUNNY     79  44  28 NW6       29.87F
PORT ARANSAS   NOT AVBL
PORT LAVACA    NOT AVBL
CORPUS CHRISTI SUNNY     82  48  30 N10       29.87F
KINGSVILLE NAS NOT AVBL
COTULLA        SUNNY     83  37  19 NW9       29.88F
LAREDO         NOT AVBL
BROWNSVILLE    SUNNY     79  56  45 NE16      29.90F
PORT ISABEL    SUNNY     76  54  46 NE13G22   29.90F
HEBBRONVILLE   NOT AVBL
MCALLEN        SUNNY     87  44  22 N8        29.89F
WESLACO        NOT AVBL
FALFURRIAS     NOT AVBL
EDINBURG       NOT AVBL
$$



USA.gov is the U.S. government's official web portal to all federal, state and local government web resources and services.